星链-3791 (STARLINK-3791 )

导读

STARLINK-3791是美国SpaceX星链项目的卫星,于2022年4月21日发射升空,属于星链低轨卫星星座的组成部分。星链项目旨在通过数千颗低轨卫星组网,为全球偏远欠发达地区提供高速低延迟宽带互联网接入服务,STARLINK-3791的入轨进一步扩充了星链星座的服务覆盖能力,助力实现全球无缝网络覆盖的目标,也推动星链完成了星座规模的阶段性扩张,支撑其商业服务的落地推广。

基本信息
目录编号:
52269
目录名称:
STARLINK-3791
国际标识:
2022-041J
轨道中心:
EARTH
卫星名称:
星链-3791
卫星全名:
星链-3791 (STARLINK-3791 )
卫星状态:
在轨 (已飞行1597 天)
发射日期:
2022-04-21 UTC
国别 :
美国 (US)
星等 :
--
轨道信息
数据来源 国际轨道数据
星历时间: 2026-09-04T04:00:02+0800
8小时前
查看轨道信息
半长轴: 6838.181km
偏心率: 0.000038
轨道倾角: 53.161°
近地点辐角 72.799°
升交点赤经 25.899°
平近点角 112.989°
近地点: 459.784km
远地点: 460.304km
周期: 93.793分钟
每日圈数: 15.352954
详细信息
固有亮度:
5
最大亮度:
2.5
卫星平台:
Starlink v1.5
覆盖范围:
全球
运营商:
太空探索技术公司
运营商所在国:
美国
制造商(研发单位):
太空探索技术公司
制造商所在国:
美国
使用方式:
暂无
卫星简介
星链(Starlink)计划是由太空探索技术公司(SpaceX)提出的一个巨型低轨卫星互联网星座项目,计划在2019年至2024年间在太空搭建由约1.2万颗卫星组成的“星链”网络,其中1584颗将部署在地球上空550千米处的近地轨道,并从2020年开始工作。该卫星仍在工作。
2D轨道图
3D轨道图
轨道高度分析图
轨道倾角分析图
轨道综合分析图
查看轨道综合分析图
交会数据列表
事件ID 空间交会对象 最接近时刻(TCA) 交会距离 交会风险概率(CRP) 交会风险指数(CRI) 操作
CDM_260903-031705-226906-042521
2026-09-03T
03:17:48+0000
1.455 km
极远距离
4.869809E-6 低风险 0.49
CDM_260904-122705-226906-574621
2026-09-04T
12:27:05+0000
1.599 km
极远距离
4.767028E-6 低风险 0.49
CDM_260903-120805-226906-281721
2026-09-03T
12:08:51+0000
1.690 km
极远距离
4.045395E-6 低风险 0.47
CDM_260830-134805-226906-930821
2026-08-30T
13:48:19+0000
1.764 km
极远距离
3.888194E-6 低风险 0.47
CDM_260904-133305-226906-662521
2026-09-04T
13:33:43+0000
0.950 km
远距离
3.530526E-6 低风险 0.46
CDM_260905-050805-226905-301421
2026-09-05T
05:08:52+0000
1.344 km
极远距离
3.406024E-6 低风险 0.46
CDM_260904-052505-226906-574621
2026-09-04T
05:25:05+0000
1.803 km
极远距离
3.327542E-6 低风险 0.45
CDM_260903-191005-226906-281721
2026-09-03T
19:10:52+0000
1.880 km
极远距离
2.983347E-6 低风险 0.44
CDM_260903-132205-226906-591321
2026-09-03T
13:22:33+0000
1.427 km
极远距离
2.839339E-6 低风险 0.44
CDM_260904-003305-226906-624221
2026-09-04T
00:33:37+0000
2.232 km
极远距离
1.918629E-6 低风险 0.41